CZ-6A DEB

Satellite information

Favourite Embed

Satellite Type and Status

DEBRISIN ORBIT

Key statistics

Satellite CZ-6A DEB at a glance.

Uptime

967

Days in orbit

Revolutions

≈ 14.3

Per day

Orbit

SSO

Sun Synchronous Orbit

Inclination

98.8

Latest

Satellite identification and parameters

Extended collection of information and parameters for CZ-6A DEB.

Object identification

Identified? True

Debris? True

Object name: CZ-6A DEB

International designator: 2022-151VC

Object number (NORAD): 55187

Object ID (CCSDS): 55187

Country: PEOPLES REPUBLIC OF CHINA (PRC)

Current information (Y/N): Y

RCS size: SMALL

Orbital parameters

Period: 100.85 minutes

Inclination: 98.8142 deg

SMA: 7177.011 km

Apoapsis: 846.007 km

Periapsis: 751.745 km

RAAN: 198.7359 deg

Eccentricy: 0.0065669

Argument of periapsis: 258.7426 deg

Mean anomaly: 100.6369 deg

Mean motion: 14.27865688 rev/day

Mean motion (dot): 0.0000447 rev/day2

B* drag term: 0.0017828 1/REarth

Two-line elements (TLE)

Creation date: July 4, 2025, 10:56 p.m.

Reference frame: TEME

Reference center: EARTH

Epoch: July 4, 2025, 6:15 p.m. UTC

TLE line 0: 0 CZ-6A DEB

TLE line 1: 1 55187U 22151VC 25185.76085715 .00004470 00000-0 17828-2 0 9990

TLE line 2: 2 55187 98.8142 198.7359 0065669 258.7426 100.6369 14.27865688133937

Live tracking on map

Real-time ground track for satellite CZ-6A DEB.

In-orbit conjunctions

A list of the most updated potential collisions computed for object CZ-6A DEB.

Target Orbit TCA Probability of collision Miss distance Type
IRIDIUM 33 DEB LEO 2024-12-26 03:28:35 0.0002274857 49.0 (m) DEBRIS

Associated space launch

Chinese satellite reported for atmospheric/ocean/environmental/spatial parameter research purposes, details TBD.

CZ-6A DEB was lifted into orbit during the mission ‘Long March 6A | Yunhai 3’, on board a Long March 6A space rocket.

The launch took place on Nov. 11, 2022, 10:52 p.m. from Launch Complex 9A.

For more information about the launch, click the button.

Launch to space Long March 6A | Yunhai 3
Long March 6A | Yunhai 3

Agency: N/A

Status: Launch Successful

Launch date: Nov. 11, 2022, 10:52 p.m. UTC

Rocket: Long March 6A

Launch pad: Launch Complex 9A

Location: Taiyuan Satellite Launch Center, People's Republic of China

...

Latest news about this satellite

There are no fresh news available about this satellite. Check back as we update our databases every day.


Newsletter sign-up

Weekly statistics, charts and insights to help you stay on top of the space industry.